Tracking 35331 objects as of 14-Sep-2026
HD Live streaming from Space Station
objects crossing your sky now

ZQ-2E DEB


ZQ-2E DEB is no longer on orbit


NORAD ID: 69631
Int'l Code: 2026-128F
Launch date: June 9, 2026
Source: People's Republic of China (PRC)
Launch site: Jiuquan Satellite Launch Center, China (JSC)
Decay date: 2026-08-17

Note: This is SATELLITE DEBRIS
Your satellite tracking list
Your tracking list is empty




NASA's NSSDC Master Catalog

Two Line Element Set (TLE):
1 69631U 26128F   26229.38608063  .15581520  12261-4  10501-2 0  9991
2 69631  54.5082   9.0153 0006759 306.7105  53.3340 16.40603172 10838
Source of the keplerian elements: AFSPC